SCP
0 0 0 0 0 0 0 0 0 0 0 0 0 0 0 0 0 0 0 0 0 1 0 0 1 1 1 1 1 1 1 1 1 2 2 2 3 3 2 2 2 2 2
0 0 0 0 0 0 0 0 0 0 0 0 0 0 0 0 0 0 0 0 0 0 0 0 1 1 1 1 1 1 1 1 1 1 2 2 2 2 2 2 2 1 1
0 0 0 0 0 0 0 0 0 0 0 0 0 0 0 0 0 0 0 0 0 0 0 0 0 1 1 1 1 1 0 0 0 1 1 1 1 1 1 1 1 1 0
0 0 0 0 0 0 0 0 0 0 0 0 0 0 0 0 0 0 0 0 0 0 0 0 0 0 1 1 1 0 0 0 0 0 1 1 1 1 0 0 0 0 0
0 0 0 0 0 0 0 0 0 0 0 0 0 0 0 0 0 0 0 0 0 0 0 0 0 0 0 0 0 0 0 0 0 0 0 0 0 0 0 0 0 0 0
0 0 0 0 0 0 0 0 0 0 0 0 0 0 0 0 0 0 0 0 0 0 0 0 0 0 0 0 0 0 0 0 0 0 0 0 0 0 0 0 0 0 0
0 0 0 0 0 0 0 0 0 0 0 0 0 0 0 0 0 0 0 0 0 0 0 0 0 0 0 0 0 0 0 0 0 0 0 0 0 0 0 0 0 0 0
0 0 0 0 0 0 0 0 0 0 0 0 0 0 0 0 0 0 0 0 0 0 0 0 0 0 0 0 0 0 0 0 0 0 0 0 0 0 0 0 0 0 0
0 0 0 0 0 0 0 0 0 0 0 0 0 0 0 0 0 0 0 0 0 0 0 0 0 0 0 0 0 0 0 0 0 0 0 0 0 0 0 0 0 0 0
0 0 0 0 0 0 0 0 0 0 0 0 0 0 0 0 0 0 0 0 0 0 0 0 0 0 0 0 0 0 0 0 0 0 0 0 0 0 0 0 0 0 0
0 0 0 0 0 0 0 0 0 0 0 0 0 0 0 0 0 0 0 0 0 0 0 0 0 0 0 0 0 0 0 0 0 0 0 0 0 0 0 0 0 0 0
0 0 0 0 0 0 0 0 0 0 0 0 0 0 0 0 0 0 0 0 0 0 0 0 0 0 0 0 0 0 0 0 0 0 0 0 0 0 0 0 0 0 0
0 0 0 0 0 0 0 0 0 0 0 0 0 0 0 0 0 0 0 0 0 0 0 0 0 0 0 0 0 0 0 0 0 0 0 0 0 0 0 0 0 0 0
0 0 0 0 0 0 0 0 0 0 0 0 0 0 0 0 0 0 0 0 0 0 0 0 0 0 0 0 0 0 0 0 0 0 0 0 0 0 0 0 0 0 0
0 0 0 0 0 0 0 0 0 0 0 0 0 0 0 0 0 0 0 0 0 0 0 0 0 0 0 0 0 0 0 0 0 0 0 0 0 0 0 0 0 0 0
0 0 0 0 0 0 0 0 0 0 0 0 0 0 0 0 0 0 0 0 0 0 0 0 0 0 0 0 0 0 0 0 0 0 0 0 0 0 0 0 0 0 0
0 0 0 0 0 0 0 0 0 0 0 0 0 0 0 0 0 0 0 0 0 0 0 0 0 0 0 0 0 0 0 0 0 0 0 0 0 0 0 0 0 0 0
0 0 0 0 0 0 0 0 0 0 0 0 0 0 0 0 0 0 0 0 0 0 0 0 0 0 0 0 0 0 0 0 0 0 0 0 0 0 0 0 0 0 0
0 0 0 0 0 0 0 0 0 0 0 0 0 0 0 0 0 0 0 0 0 0 0 0 0 0 0 0 0 0 0 0 0 0 0 0 0 0 0 0 0 0 0
0 0 0 0 0 0 0 0 0 0 0 0 0 0 0 0 0 0 0 0 0 0 0 0 0 0 0 0 0 0 0 0 0 0 0 0 0 0 0 0 0 0 0
0 0 0 0 0 0 0 0 0 0 0 0 0 0 0 0 0 0 0 0 0 0 0 0 0 0 0 0 0 0 0 0 0 0 0 0 0 0 0 0 0 0 0
0 0 0 0 0 0 0 0 0 0 0 0 0 0 0 0 0 0 0 0 0 0 0 0 0 0 0 0 0 0 0 0 0 0 0 0 0 0 0 0 0 0 0
0 0 0 0 0 0 0 0 0 0 0 0 0 0 0 0 0 0 0 0 0 0 0 0 0 0 0 0 0 0 0 0 0 0 0 0 0 0 0 0 0 0 0
0 0 0 0 0 0 0 0 0 0 0 0 0 0 0 0 0 0 0 0 0 0 0 0 0 0 0 0 0 0 0 0 0 0 0 0 0 0 0 0 0 0 0
0 0 0 0 0 0 0 0 0 0 0 0 0 0 0 0 0 0 0 0 0 0 0 0 0 0 0 0 0 0 0 0 0 0 0 0 0 0 0 0 0 0 0
0 0 0 0 0 0 0 0 0 0 0 0 0 0 0 0 0 0 0 0 0 0 0 0 0 0 0 0 0 0 0 0 0 0 0 0 0 0 0 0 0 0 0
Wind_Speed
22 23 21 15 9 9 10 10 10 9 7 5 5 5 5 4 3 2 2 3 3 4 4 3 3 3 3 3 4 3 4 2 2 3 4 4 4 5 3 5 5 6 5
23 24 24 20 15 11 11 12 11 10 9 7 5 4 4 4 3 3 3 3 3 3 2 3 3 2 2 3 4 5 4 2 2 3 2 3 4 5 4 4 3 3 3
23 25 25 24 20 14 12 11 12 11 10 8 5 4 4 4 5 5 4 4 4 4 4 4 3 3 3 3 3 3 4 2 2 2 3 3 5 5 5 4 3 2 1
22 23 25 27 26 21 14 12 11 11 10 9 7 8 7 8 8 6 5 4 4 4 4 3 4 4 4 4 4 3 3 3 3 2 2 3 1 3 4 4 2 1 1
19 21 23 24 24 23 17 12 12 11 10 8 9 9 9 8 6 6 6 5 5 5 4 4 4 4 4 4 4 4 4 4 4 4 3 2 2 3 3 3 3 3 2
17 19 21 21 21 22 21 16 14 13 12 11 10 10 10 9 8 8 6 5 4 4 4 4 3 3 4 5 4 4 5 5 5 4 4 4 4 5 4 5 5 5 3
17 19 22 22 23 24 23 20 18 16 15 13 12 11 10 10 10 9 7 6 5 5 4 3 4 4 5 5 5 5 6 7 7 7 6 6 6 4 5 5 5 6 5
17 18 19 20 20 21 21 21 20 19 18 17 15 13 12 9 9 9 7 6 4 3 2 3 4 5 5 6 5 5 6 6 8 9 9 7 7 6 6 6 7 8 7
20 19 20 20 20 20 20 20 20 20 19 19 19 14 12 11 10 8 6 4 2 0 2 3 4 5 5 6 5 5 6 6 7 8 8 8 8 6 7 7 8 9 9
20 19 19 20 20 20 19 18 19 19 19 19 17 13 10 11 9 7 6 5 4 1 3 4 5 6 7 7 7 6 6 6 7 6 7 8 7 7 7 8 8 9 10
18 19 21 21 20 19 18 19 20 20 19 19 15 14 13 12 10 8 6 6 5 1 3 5 6 7 8 8 8 8 7 8 8 7 7 8 9 7 7 7 8 8 9
21 24 24 22 19 17 16 16 18 18 18 19 11 9 9 8 9 8 7 5 6 3 3 4 5 5 6 6 7 8 7 7 6 5 6 7 7 8 8 7 8 8 9
27 26 24 22 20 17 14 14 16 15 15 14 9 3 4 7 8 6 6 4 6 5 2 1 1 3 4 5 5 4 3 3 4 4 3 4 5 7 6 6 6 6 6
28 27 24 22 21 18 14 13 13 13 12 10 7 4 1 4 6 7 7 6 5 4 1 0 3 5 6 6 7 8 7 7 8 8 9 9 9 8 7 4 3 4 6
29 28 26 24 22 20 16 9 9 9 8 7 6 5 5 3 3 7 8 4 3 5 2 3 5 7 7 7 7 7 8 8 8 8 7 8 9 12 11 8 6 4 1
28 29 28 25 22 20 16 6 6 7 7 6 6 5 5 5 5 7 3 2 4 5 3 5 7 9 8 11 12 8 7 7 6 6 5 5 7 9 11 11 10 10 6
26 26 25 22 20 16 9 4 5 6 6 7 7 8 7 7 6 4 0 3 6 6 4 5 7 8 9 12 12 9 6 5 4 4 4 4 5 6 5 6 6 6 6
23 21 18 16 16 9 5 5 5 6 7 8 8 8 7 5 4 5 7 6 5 5 5 6 6 7 9 11 9 7 5 5 5 6 6 7 7 7 9 7 5 5 4
18 17 14 13 9 8 7 6 7 7 7 8 8 8 7 4 4 7 6 4 4 5 5 6 6 6 8 10 8 6 4 4 5 5 6 8 7 11 13 9 7 6 5
18 16 13 11 11 10 8 8 9 9 9 9 8 9 9 6 6 6 5 4 3 4 4 4 5 6 6 8 7 7 5 4 4 4 4 7 10 11 11 10 7 7 7
19 15 13 13 13 11 10 10 10 10 10 8 8 8 9 8 7 5 5 4 4 3 2 3 4 5 6 6 7 8 6 5 5 4 4 5 11 11 10 8 7 9 10
17 15 12 12 12 12 10 10 10 9 8 7 7 8 8 7 6 6 5 5 4 3 3 3 3 3 3 4 6 7 6 7 6 4 4 6 10 10 9 7 9 10 8
15 13 12 11 11 12 12 11 11 10 9 8 8 8 8 8 7 6 5 4 4 3 3 4 3 4 3 3 3 6 6 5 6 5 7 8 9 8 6 7 9 7 5
14 12 12 11 11 11 12 12 12 10 9 8 8 8 8 8 7 5 5 4 4 4 4 4 4 4 4 4 4 5 5 5 4 3 5 7 7 5 6 6 5 5 5
11 11 10 10 11 11 11 12 12 11 9 8 8 7 7 7 6 5 5 5 4 5 6 5 5 6 7 7 10 10 6 3 2 4 5 5 5 5 4 5 5 5 6
11 11 10 10 10 11 12 12 12 11 10 9 8 8 8 7 7 7 6 5 6 9 9 9 9 9 12 13 13 11 4 1 2 3 5 6 6 6 6 6 6 6 6
Wind_Direction
19 14 8 353 311 272 254 244 238 231 223 215 214 212 206 198 193 180 195 214 204 201 212 205 196 206 202 197 206 202 203 199 233 225 205 208 205 207 203 243 224 210 211
15 10 8 3 341 298 264 248 241 238 232 233 233 238 211 195 170 148 138 141 150 159 184 197 195 195 187 171 179 185 182 173 191 214 166 188 198 201 196 204 190 182 178
12 8 5 3 354 334 284 254 246 242 237 231 213 201 186 185 183 184 171 151 150 147 153 165 180 188 197 181 170 177 201 190 188 258 265 214 214 159 179 180 162 148 146
10 8 5 3 360 345 312 275 265 256 245 232 222 216 218 215 206 199 189 178 184 178 166 170 179 193 200 190 184 187 196 209 208 224 284 299 329 228 180 188 204 239 282
7 6 6 1 358 355 339 299 285 271 255 245 246 241 240 235 215 206 202 203 195 195 186 194 195 205 211 207 202 204 207 217 214 210 213 227 237 265 243 218 223 254 253
2 3 2 358 356 357 355 331 294 283 269 257 250 244 238 225 212 210 214 213 202 187 187 198 202 218 228 231 224 221 225 227 234 231 222 217 209 211 217 227 234 251 254
358 359 358 357 356 355 353 346 324 300 287 276 265 252 242 229 218 214 220 221 205 194 188 221 231 244 250 254 247 233 227 227 232 236 233 231 235 227 225 239 256 264 269
356 353 351 349 346 344 345 342 335 317 299 283 266 254 245 235 227 221 214 216 217 211 219 258 272 274 273 270 262 252 244 234 231 235 236 235 234 228 232 239 252 257 256
345 341 340 337 333 331 332 337 335 325 309 295 271 250 254 253 240 223 217 191 176 198 283 299 296 290 289 285 281 268 263 256 249 244 242 240 239 235 235 238 245 254 262
331 333 331 327 326 326 326 328 330 323 312 297 277 257 238 243 243 217 192 155 127 69 306 322 312 304 299 295 290 284 282 276 264 258 255 247 243 236 231 231 237 241 250
328 323 325 324 320 319 326 327 330 328 322 307 267 234 221 213 202 204 169 149 120 71 327 330 315 311 305 295 286 279 278 271 269 267 259 255 251 249 243 237 237 238 240
322 321 322 320 317 319 325 324 328 331 331 322 285 223 191 205 211 189 152 152 120 104 23 343 329 326 320 312 298 282 275 273 274 281 281 274 272 264 256 249 243 242 238
322 323 322 321 317 321 323 324 331 338 339 339 331 294 197 196 209 183 141 125 98 78 40 309 6 34 18 11 1 352 18 32 29 24 4 345 306 274 268 260 253 245 239
320 319 319 318 317 324 322 323 330 340 345 351 344 358 322 190 172 147 103 81 80 83 41 73 101 87 66 49 43 45 51 52 49 45 45 34 22 14 357 350 327 260 229
320 320 320 319 317 322 325 322 326 341 347 1 357 3 359 3 91 80 75 93 98 84 78 74 75 76 65 53 48 50 45 41 43 43 41 38 28 28 32 37 23 7 346
324 321 319 317 318 320 326 337 344 348 357 13 7 2 4 3 27 58 64 106 108 99 102 74 64 62 60 61 53 44 51 49 41 29 17 22 29 21 27 31 31 31 23
323 318 314 313 317 327 348 11 5 1 14 19 13 10 10 6 7 5 273 108 94 103 102 74 64 62 56 52 53 39 38 42 38 18 351 352 9 357 10 12 14 16 9
323 319 314 314 319 353 30 35 25 21 22 20 11 3 0 359 17 36 42 54 80 91 83 67 55 54 45 38 47 27 11 10 9 2 354 349 347 352 347 337 335 335 328
320 320 320 321 348 23 30 33 34 28 25 20 9 356 342 345 66 61 45 46 79 85 77 69 54 44 37 23 19 7 351 355 351 352 3 351 342 2 349 334 330 329 320
325 333 348 8 28 28 25 31 29 21 13 11 5 359 355 21 48 50 41 37 66 87 85 67 41 31 23 18 7 7 359 359 351 349 4 15 360 357 354 345 344 326 328
354 10 26 30 26 22 26 31 22 10 359 3 8 11 8 18 27 33 33 27 28 34 33 21 11 14 12 7 4 9 3 2 350 349 352 11 0 358 359 349 344 342 333
8 22 30 29 24 19 21 24 17 0 356 3 15 17 16 17 13 18 23 16 357 336 315 306 321 353 0 354 346 355 5 352 339 344 342 356 351 347 347 345 351 341 326
8 18 26 26 22 18 17 17 9 3 7 14 20 18 17 19 8 8 12 7 355 341 326 318 325 326 319 300 295 307 308 329 333 344 348 339 334 333 332 340 337 327 327
7 12 18 20 18 16 17 14 10 7 15 19 19 16 15 13 14 6 6 4 357 343 334 325 318 308 299 297 291 289 270 261 290 323 323 322 318 317 315 316 319 326 329
5 10 11 13 16 15 17 15 11 7 8 14 12 10 8 4 359 359 353 343 346 336 325 322 312 306 302 304 302 298 294 281 299 311 304 302 310 312 313 315 318 321 315
1 4 7 9 10 12 14 11 10 8 5 359 6 2 355 351 345 339 338 340 336 334 328 322 316 308 302 300 301 306 322 74 355 303 295 299 305 309 315 316 316 313 306